Time,TemperatureF,DewpointF,PressureIn,WindDirection,WindDirectionDegrees,WindSpeedMPH,WindSpeedGustMPH,Humidity,HourlyPrecipIn,Conditions,Clouds,dailyrainin,SoftwareType,DateUTC
2013-02-13 00:00:00,44.0,40.0,29.77,North,359,0.0,4.0,86,0.00,,,0.01,weatherlink.com 1.10,2013-02-13 06:00:00,
2013-02-13 00:15:00,43.7,40.0,29.77,NE,45,2.0,2.0,88,0.01,,,0.02,weatherlink.com 1.10,2013-02-13 06:15:00,
2013-02-13 00:31:00,43.4,41.0,29.78,NNW,340,2.0,3.0,90,0.01,,,0.00,weatherlink.com 1.10,2013-02-13 06:31:00,
2013-02-13 00:46:00,43.0,41.0,29.78,NNW,341,2.0,3.0,92,0.01,,,0.00,weatherlink.com 1.10,2013-02-13 06:46:00,
2013-02-13 01:01:00,42.7,41.0,29.77,NNW,341,3.0,4.0,93,0.01,,,0.01,weatherlink.com 1.10,2013-02-13 07:01:00,
2013-02-13 01:16:00,42.6,41.0,29.76,NNW,341,1.0,3.0,94,0.02,,,0.02,weatherlink.com 1.10,2013-02-13 07:16:00,
2013-02-13 01:31:00,42.5,41.0,29.76,NNW,341,0.0,4.0,94,0.02,,,0.02,weatherlink.com 1.10,2013-02-13 07:31:00,
2013-02-13 01:46:00,42.5,41.0,29.76,NW,326,2.0,4.0,95,0.02,,,0.02,weatherlink.com 1.10,2013-02-13 07:46:00,
2013-02-13 02:01:00,42.6,41.0,29.75,NW,326,2.0,4.0,95,0.01,,,0.02,weatherlink.com 1.10,2013-02-13 08:01:00,
2013-02-13 02:16:00,41.5,40.0,29.75,North,359,4.0,8.0,94,0.00,,,0.02,weatherlink.com 1.10,2013-02-13 08:16:00,
2013-02-13 02:31:00,41.1,40.0,29.76,North,4,1.0,6.0,95,0.01,,,0.03,weatherlink.com 1.10,2013-02-13 08:31:00,
2013-02-13 02:46:00,41.1,40.0,29.76,NNW,339,2.0,5.0,95,0.01,,,0.03,weatherlink.com 1.10,2013-02-13 08:46:00,
2013-02-13 03:01:00,40.7,39.0,29.75,NW,315,3.0,8.0,95,0.01,,,0.03,weatherlink.com 1.10,2013-02-13 09:01:00,
2013-02-13 03:16:00,40.6,39.0,29.75,North,9,2.0,7.0,95,0.02,,,0.04,weatherlink.com 1.10,2013-02-13 09:16:00,
2013-02-13 03:31:00,40.5,39.0,29.75,NNW,339,2.0,8.0,95,0.01,,,0.04,weatherlink.com 1.10,2013-02-13 09:31:00,
2013-02-13 03:46:00,40.4,39.0,29.76,NW,314,2.0,8.0,95,0.01,,,0.04,weatherlink.com 1.10,2013-02-13 09:46:00,
2013-02-13 04:01:00,40.4,39.0,29.76,NNW,345,2.0,8.0,95,0.01,,,0.04,weatherlink.com 1.10,2013-02-13 10:01:00,
2013-02-13 04:18:00,40.3,39.0,29.77,North,354,2.0,7.0,95,0.00,,,0.04,weatherlink.com 1.10,2013-02-13 10:18:00,
2013-02-13 04:31:00,40.3,39.0,29.77,NNE,25,5.0,8.0,95,0.00,,,0.04,weatherlink.com 1.10,2013-02-13 10:31:00,
2013-02-13 04:46:00,40.2,39.0,29.78,NNW,345,3.0,8.0,95,0.00,,,0.04,weatherlink.com 1.10,2013-02-13 10:46:00,
2013-02-13 05:01:00,40.0,39.0,29.80,North,354,2.0,10.0,95,0.00,,,0.04,weatherlink.com 1.10,2013-02-13 11:01:00,
2013-02-13 05:16:00,39.8,38.0,29.81,NW,314,3.0,9.0,94,0.00,,,0.04,weatherlink.com 1.10,2013-02-13 11:16:00,
2013-02-13 05:31:00,39.5,38.0,29.81,NNW,340,3.0,8.0,94,0.00,,,0.04,weatherlink.com 1.10,2013-02-13 11:31:00,
2013-02-13 05:46:00,39.2,37.0,29.82,North,354,5.0,6.0,93,0.00,,,0.04,weatherlink.com 1.10,2013-02-13 11:46:00,
2013-02-13 06:01:00,39.1,38.0,29.83,North,4,4.0,8.0,94,0.00,,,0.04,weatherlink.com 1.10,2013-02-13 12:01:00,
2013-02-13 06:16:00,38.8,37.0,29.83,North,354,4.0,8.0,93,0.00,,,0.04,weatherlink.com 1.10,2013-02-13 12:16:00,
2013-02-13 06:31:00,38.7,37.0,29.84,NNW,348,9.0,10.0,94,0.00,,,0.04,weatherlink.com 1.10,2013-02-13 12:31:00,
2013-02-13 06:46:00,38.6,37.0,29.85,NNW,334,6.0,7.0,93,0.01,,,0.05,weatherlink.com 1.10,2013-02-13 12:46:00,
2013-02-13 07:01:00,38.4,37.0,29.85,NNE,13,5.0,9.0,93,0.01,,,0.05,weatherlink.com 1.10,2013-02-13 13:01:00,
2013-02-13 07:16:00,38.3,37.0,29.86,NNW,345,4.0,7.0,93,0.01,,,0.05,weatherlink.com 1.10,2013-02-13 13:16:00,
2013-02-13 07:31:00,38.2,36.0,29.87,NNW,336,3.0,10.0,93,0.01,,,0.05,weatherlink.com 1.10,2013-02-13 13:31:00,
2013-02-13 07:46:00,38.4,37.0,29.87,NNW,337,3.0,10.0,93,0.00,,,0.05,weatherlink.com 1.10,2013-02-13 13:46:00,
2013-02-13 08:02:00,38.5,36.0,29.89,NNE,23,8.0,10.0,92,0.00,,,0.05,weatherlink.com 1.10,2013-02-13 14:02:00,
2013-02-13 08:17:00,38.6,36.0,29.90,NNW,337,3.0,7.0,91,0.00,,,0.05,weatherlink.com 1.10,2013-02-13 14:17:00,
2013-02-13 08:32:00,38.5,36.0,29.91,NW,310,4.0,9.0,91,0.00,,,0.05,weatherlink.com 1.10,2013-02-13 14:32:00,
2013-02-13 08:47:00,38.6,36.0,29.92,NNW,345,5.0,10.0,91,0.00,,,0.05,weatherlink.com 1.10,2013-02-13 14:47:00,
2013-02-13 09:02:00,38.6,36.0,29.92,NNW,348,3.0,9.0,90,0.00,,,0.05,weatherlink.com 1.10,2013-02-13 15:02:00,
2013-02-13 09:17:00,38.8,36.0,29.93,NNW,337,4.0,7.0,91,0.00,,,0.05,weatherlink.com 1.10,2013-02-13 15:17:00,
2013-02-13 09:32:00,38.9,36.0,29.93,NNW,330,2.0,5.0,90,0.00,,,0.05,weatherlink.com 1.10,2013-02-13 15:32:00,
2013-02-13 09:47:00,39.5,37.0,29.93,NW,314,2.0,4.0,91,0.00,,,0.05,weatherlink.com 1.10,2013-02-13 15:47:00,
2013-02-13 10:02:00,40.2,38.0,29.94,NNW,345,4.0,6.0,90,0.00,,,0.05,weatherlink.com 1.10,2013-02-13 16:02:00,
2013-02-13 10:17:00,40.4,38.0,29.94,NNE,29,3.0,7.0,89,0.00,,,0.05,weatherlink.com 1.10,2013-02-13 16:17:00,
2013-02-13 10:32:00,40.6,37.0,29.96,North,354,5.0,8.0,88,0.00,,,0.05,weatherlink.com 1.10,2013-02-13 16:32:00,
2013-02-13 10:47:00,40.4,37.0,29.96,NNW,345,3.0,8.0,88,0.00,,,0.05,weatherlink.com 1.10,2013-02-13 16:47:00,
2013-02-13 11:02:00,40.5,37.0,29.97,NNW,339,2.0,8.0,87,0.00,,,0.05,weatherlink.com 1.10,2013-02-13 17:02:00,
2013-02-13 11:17:00,40.5,37.0,29.98,North,354,3.0,7.0,87,0.00,,,0.05,weatherlink.com 1.10,2013-02-13 17:17:00,
2013-02-13 11:34:00,40.7,37.0,29.98,NNW,344,5.0,6.0,87,0.00,,,0.05,weatherlink.com 1.10,2013-02-13 17:34:00,
2013-02-13 11:47:00,40.6,37.0,29.98,North,354,4.0,6.0,86,0.00,,,0.05,weatherlink.com 1.10,2013-02-13 17:47:00,
2013-02-13 12:02:00,40.5,37.0,29.98,NNW,328,4.0,8.0,86,0.00,,,0.05,weatherlink.com 1.10,2013-02-13 18:02:00,
2013-02-13 12:17:00,40.5,37.0,29.97,NNW,343,5.0,7.0,87,0.00,,,0.05,weatherlink.com 1.10,2013-02-13 18:17:00,
2013-02-13 12:32:00,40.7,37.0,29.97,North,349,1.0,6.0,87,0.00,,,0.05,weatherlink.com 1.10,2013-02-13 18:32:00,
2013-02-13 12:47:00,40.6,37.0,29.97,NNW,331,2.0,6.0,88,0.00,,,0.05,weatherlink.com 1.10,2013-02-13 18:47:00,
2013-02-13 13:02:00,40.6,37.0,29.97,North,349,4.0,9.0,87,0.00,,,0.05,weatherlink.com 1.10,2013-02-13 19:02:00,
2013-02-13 13:17:00,40.6,37.0,29.96,North,354,5.0,7.0,88,0.00,,,0.05,weatherlink.com 1.10,2013-02-13 19:17:00,
2013-02-13 13:32:00,40.5,38.0,29.96,NNW,337,1.0,8.0,89,0.00,,,0.05,weatherlink.com 1.10,2013-02-13 19:32:00,
2013-02-13 13:47:00,40.6,38.0,29.95,NNW,338,0.0,5.0,89,0.00,,,0.05,weatherlink.com 1.10,2013-02-13 19:47:00,
2013-02-13 14:02:00,41.1,38.0,29.95,North,349,2.0,3.0,88,0.00,,,0.05,weatherlink.com 1.10,2013-02-13 20:02:00,
2013-02-13 14:17:00,42.0,38.0,29.94,NNW,328,3.0,5.0,86,0.00,,,0.05,weatherlink.com 1.10,2013-02-13 20:17:00,
2013-02-13 14:32:00,42.3,37.0,29.94,NW,311,1.0,5.0,81,0.00,,,0.05,weatherlink.com 1.10,2013-02-13 20:32:00,
2013-02-13 14:47:00,43.1,38.0,29.94,West,276,0.0,3.0,81,0.00,,,0.05,weatherlink.com 1.10,2013-02-13 20:47:00,
2013-02-13 15:02:00,43.6,38.0,29.93,SSE,167,2.0,2.0,79,0.00,,,0.05,weatherlink.com 1.10,2013-02-13 21:02:00,
2013-02-13 15:17:00,43.3,38.0,29.94,South,173,2.0,3.0,81,0.00,,,0.05,weatherlink.com 1.10,2013-02-13 21:17:00,
2013-02-13 15:32:00,43.7,38.0,29.94,NNW,343,3.0,3.0,79,0.00,,,0.05,weatherlink.com 1.10,2013-02-13 21:32:00,
2013-02-13 15:47:00,44.1,38.0,29.94,West,272,1.0,2.0,78,0.00,,,0.05,weatherlink.com 1.10,2013-02-13 21:47:00,
2013-02-13 16:02:00,44.5,38.0,29.95,WSW,255,0.0,1.0,78,0.00,,,0.05,weatherlink.com 1.10,2013-02-13 22:02:00,
2013-02-13 16:17:00,44.1,38.0,29.94,North,349,1.0,3.0,78,0.00,,,0.05,weatherlink.com 1.10,2013-02-13 22:17:00,
2013-02-13 16:32:00,44.4,38.0,29.94,NW,325,2.0,2.0,77,0.00,,,0.05,weatherlink.com 1.10,2013-02-13 22:32:00,
2013-02-13 16:47:00,44.2,37.0,29.95,NW,326,0.0,3.0,77,0.00,,,0.05,weatherlink.com 1.10,2013-02-13 22:47:00,
2013-02-13 17:02:00,44.1,38.0,29.95,SW,215,1.0,2.0,78,0.00,,,0.05,weatherlink.com 1.10,2013-02-13 23:02:00,
2013-02-13 17:17:00,44.2,38.0,29.95,South,185,1.0,4.0,78,0.00,,,0.05,weatherlink.com 1.10,2013-02-13 23:17:00,
2013-02-13 17:32:00,44.2,38.0,29.95,South,185,0.0,3.0,79,0.00,,,0.05,weatherlink.com 1.10,2013-02-13 23:32:00,
2013-02-13 17:47:00,44.0,38.0,29.96,South,190,0.0,3.0,79,0.00,,,0.05,weatherlink.com 1.10,2013-02-13 23:47:00,
2013-02-13 18:02:00,44.0,38.0,29.96,South,190,0.0,2.0,79,0.00,,,0.05,weatherlink.com 1.10,2013-02-14 00:02:00,
2013-02-13 18:17:00,43.7,38.0,29.96,South,177,0.0,3.0,79,0.00,,,0.05,weatherlink.com 1.10,2013-02-14 00:17:00,
2013-02-13 18:32:00,43.7,38.0,29.96,South,170,1.0,3.0,80,0.00,,,0.05,weatherlink.com 1.10,2013-02-14 00:32:00,
2013-02-13 18:49:00,43.2,38.0,29.97,SSW,199,1.0,4.0,81,0.00,,,0.05,weatherlink.com 1.10,2013-02-14 00:49:00,
2013-02-13 19:02:00,42.7,37.0,29.97,SSW,195,1.0,5.0,81,0.00,,,0.05,weatherlink.com 1.10,2013-02-14 01:02:00,
2013-02-13 19:17:00,42.3,37.0,29.97,South,185,0.0,3.0,82,0.00,,,0.05,weatherlink.com 1.10,2013-02-14 01:17:00,
2013-02-13 19:32:00,41.7,37.0,29.97,South,170,0.0,3.0,83,0.00,,,0.05,weatherlink.com 1.10,2013-02-14 01:32:00,
2013-02-13 19:47:00,41.4,37.0,29.98,South,170,1.0,5.0,85,0.00,,,0.05,weatherlink.com 1.10,2013-02-14 01:47:00,
2013-02-13 20:02:00,41.1,37.0,29.98,South,186,1.0,6.0,85,0.00,,,0.05,weatherlink.com 1.10,2013-02-14 02:02:00,
2013-02-13 20:17:00,40.8,37.0,29.98,South,176,4.0,5.0,85,0.00,,,0.05,weatherlink.com 1.10,2013-02-14 02:17:00,
2013-02-13 20:32:00,40.5,37.0,29.98,South,185,1.0,5.0,86,0.00,,,0.05,weatherlink.com 1.10,2013-02-14 02:32:00,
2013-02-13 20:47:00,40.2,37.0,29.98,SSE,166,3.0,6.0,87,0.00,,,0.05,weatherlink.com 1.10,2013-02-14 02:47:00,
2013-02-13 21:02:00,39.8,36.0,29.98,South,177,1.0,3.0,87,0.00,,,0.05,weatherlink.com 1.10,2013-02-14 03:02:00,
2013-02-13 21:17:00,39.8,36.0,29.98,South,171,2.0,4.0,87,0.00,,,0.05,weatherlink.com 1.10,2013-02-14 03:17:00,
2013-02-13 21:32:00,39.8,36.0,29.99,SSW,195,1.0,7.0,87,0.00,,,0.05,weatherlink.com 1.10,2013-02-14 03:32:00,
2013-02-13 21:47:00,39.5,36.0,29.99,South,177,0.0,3.0,88,0.00,,,0.05,weatherlink.com 1.10,2013-02-14 03:47:00,
2013-02-13 22:02:00,39.5,36.0,29.99,SSE,162,2.0,3.0,88,0.00,,,0.05,weatherlink.com 1.10,2013-02-14 04:02:00,
2013-02-13 22:17:00,39.5,36.0,30.00,SSE,166,1.0,7.0,88,0.00,,,0.05,weatherlink.com 1.10,2013-02-14 04:17:00,
2013-02-13 22:48:00,39.2,36.0,30.00,South,190,1.0,5.0,88,0.00,,,0.05,weatherlink.com 1.10,2013-02-14 04:48:00,
2013-02-13 23:03:00,39.0,36.0,30.00,South,170,1.0,5.0,88,0.00,,,0.05,weatherlink.com 1.10,2013-02-14 05:03:00,
2013-02-13 23:18:00,38.8,36.0,30.00,SSW,192,0.0,3.0,89,0.00,,,0.05,weatherlink.com 1.10,2013-02-14 05:18:00,
2013-02-13 23:33:00,38.5,36.0,30.00,SSE,164,2.0,3.0,89,0.00,,,0.05,weatherlink.com 1.10,2013-02-14 05:33:00,
2013-02-13 23:48:00,38.8,36.0,30.00,SSW,192,1.0,7.0,89,0.00,,,0.05,weatherlink.com 1.10,2013-02-14 05:48:00,